[[{"header":{"parameterUnit":"m.s-1","parameterCategory":1,"la1":30.2991,"la2":30.254,"lo1":-89.0895,"lo2":-89.0444,"dy":0.0017,"dx":0.0017,"nx":28,"ny":28,"refTime":"2023-11-03T21:00:00:Z","depth":0,"parameterNumber":2,"parameterNumberName":"U-component_of_WINDS"},"data":[0,0,0,0,0,0,0,0,0,0,0,0,0,0,0,0,0,0,0,0,0,0,0,0,0,0,0,0,0,0,0,0,0,0,0,0,0,0,0,0,0,0,0,0,0,0,0,0,0,0,0,0,0,0,0,0,0,0,0.1445,0.1445,0,0.1408,0.1407,0.1407,0.14,0.14,0.1401,0.1401,0.1362,0.1361,0.1359,0,0,0,0,0,0,0,0,0,0,0,0,0,0.1511,0.151,0.1445,0.1445,0.1444,0.1408,0.1407,0.1407,0.14,0.14,0.1401,0.1401,0.1362,0.1361,0.1359,0,0,0,0,0,0,0,0,0,0,0,0,0,0.1479,0.151,0.1445,0.1437,0.1435,0.1408,0.1407,0.1406,0.14,0.14,0.1401,0.1401,0.1363,0.1361,0.1359,0.1337,0,0,0.1353,0.1352,0,0,0,0,0,0,0,0,0.1481,0.1477,0.1438,0.1437,0.1436,0.1409,0.1416,0.1383,0.14,0.1413,0.1401,0.1401,0.1377,0.1374,0.1366,0.1335,0.1334,0.1353,0.1352,0.1351,0.135,0,0,0,0,0,0,0,0.1483,0.1478,0.143,0.1438,0.1436,0.1434,0.143,0.141,0.1393,0.1412,0.1412,0.1407,0.1377,0.1368,0.1365,0.1333,0.1353,0.1351,0.135,0.1349,0.1283,0.1282,0,0,0,0,0,0,0.1487,0.148,0.1432,0.1429,0.146,0.1433,0.1428,0.1417,0.1393,0.139,0.1407,0.1407,0.1371,0.1367,0.1364,0.1336,0.1351,0.1349,0.1348,0.1283,0.1282,0.1282,0,0,0,0,0,0,0.1488,0.1483,0.1433,0.1454,0.1448,0.1431,0.1419,0.1416,0.1407,0.1389,0.1386,0.1401,0.1371,0.1366,0.1344,0.1334,0.1348,0.1346,0.1284,0.1283,0.1282,0.1281,0,0,0,0,0,0,0.149,0.1483,0.1475,0.1454,0.1447,0.1414,0.1418,0.1415,0.1404,0.1404,0.1383,0.138,0.1371,0.1347,0.1342,0.1332,0.1345,0.1285,0.1283,0.1282,0.1282,0.128,0.1279,0,0,0,0,0,0.1493,0.1476,0.1474,0.1469,0.1436,0.1413,0.1409,0.1399,0.1403,0.1394,0.1383,0.1381,0.1337,0.1345,0.1339,0.1328,0.1285,0.1284,0.1283,0.1282,0.128,0.1279,0,0,0,0,0,0,0.1496,0.1473,0.1471,0.1447,0.1432,0.1412,0.1401,0.1398,0.1381,0.1382,0.1371,0.1366,0.1344,0.1334,0.1343,0.1306,0.1311,0.1309,0.1313,0.1311,0.1309,0.1312,0.1343,0,0,0,0,0,0.1494,0.1477,0.1458,0.1439,0.1432,0.1418,0.1408,0.1401,0.1385,0.1379,0.1366,0.135,0.1333,0.1322,0.1305,0.1281,0.1276,0.1271,0.1269,0.1268,0.1266,0.1252,0.1249,0.1278,0.1278,0.1278,0,0,0.1489,0.1475,0.1465,0.1439,0.1427,0.141,0.1412,0.1394,0.1382,0.1376,0.1354,0.1344,0.1326,0.1302,0.1291,0.1293,0.1257,0.1266,0.1266,0.1264,0.125,0.1247,0.1245,0.1277,0.1277,0.1277,0,0,0.1472,0.146,0.1442,0.1429,0.1411,0.1402,0.1398,0.1378,0.1371,0.1348,0.1344,0.1329,0.1299,0.1286,0.1276,0.1254,0.1251,0.1249,0.1241,0.1227,0.1225,0.1223,0.1214,0.1212,0.1247,0.1247,0.1247,0,0.1468,0.1442,0.1433,0.1415,0.1404,0.1399,0.138,0.1369,0.1346,0.1338,0.1341,0.1303,0.1291,0.1264,0.1259,0.1251,0.1245,0.1251,0.1226,0.1224,0.1222,0.1214,0.1211,0.1247,0.1247,0.1247,0.1247,0,0.1438,0.1421,0.1409,0.1386,0.1374,0.1356,0.1344,0.1332,0.1328,0.1318,0.1295,0.128,0.126,0.1253,0.1249,0.1226,0.1228,0.1229,0.1233,0.1219,0.1211,0.1208,0.1246,0.1247,0.1247,0.1247,0,0,0.1421,0.1394,0.139,0.1379,0.1358,0.1344,0.1326,0.1307,0.1297,0.1281,0.1265,0.1241,0.1241,0.123,0.1224,0.1212,0.1195,0.1214,0.1214,0.121,0.1168,0.1166,0.1163,0.1193,0.1193,0.1192,0.1169,0,0.14,0.1367,0.1359,0.1331,0.1314,0.1309,0.1293,0.1279,0.127,0.1254,0.1244,0.1227,0.1229,0.1222,0.1211,0.1199,0.1186,0.1201,0.1178,0.1177,0.1181,0.1158,0.1157,0.1135,0.1166,0.1165,0.1165,0,0.1371,0.1355,0.1325,0.1307,0.1299,0.1285,0.1266,0.1252,0.1235,0.1229,0.1216,0.1211,0.1192,0.1199,0.1172,0.1183,0.1173,0.1166,0.1165,0.1161,0.1169,0.1153,0.1128,0.1125,0.116,0.116,0.1161,0,0.136,0.1331,0.1309,0.1301,0.1279,0.1269,0.1259,0.1243,0.1232,0.1215,0.1208,0.119,0.1179,0.1165,0.1155,0.1162,0.1129,0.1135,0.1123,0.1123,0.1115,0.1116,0.1088,0.1111,0.1111,0.1111,0.1112,0,0.1337,0.1319,0.1304,0.129,0.127,0.126,0.124,0.1231,0.1216,0.1201,0.1196,0.1182,0.117,0.1154,0.1147,0.1125,0.1121,0.1115,0.1113,0.1115,0.1115,0.1107,0.1108,0.1111,0.1111,0.1111,0.1111,0,0.132,0.131,0.1285,0.1267,0.1262,0.1247,0.1231,0.1218,0.1209,0.1189,0.1184,0.117,0.1151,0.114,0.1116,0.1111,0.1087,0.1086,0.1092,0.1091,0.1079,0.108,0.1044,0.1038,0.1067,0.1066,0.1066,0,0.1306,0.1291,0.1271,0.126,0.1251,0.1233,0.1222,0.1212,0.12,0.1181,0.117,0.115,0.1134,0.1104,0.1092,0.1073,0.1071,0.106,0.1068,0.107,0.107,0.107,0.1068,0.1058,0.1058,0.1058,0.1057,0,0.128,0.1276,0.1259,0.1241,0.1227,0.1212,0.1197,0.1189,0.1177,0.1164,0.1144,0.1132,0.1107,0.1088,0.1069,0.1059,0.1056,0.1055,0.1051,0.1052,0.1055,0.1052,0.1087,0.1056,0.1056,0.1056,0.1056,0.1056,0.1263,0.125,0.1234,0.1215,0.1203,0.119,0.1176,0.1166,0.1149,0.1128,0.1124,0.1103,0.1087,0.1061,0.1051,0.1034,0.1036,0.1031,0.1029,0.1028,0.1026,0.1059,0.1031,0.1031,0.1031,0.1031,0.1031,0,0.1237,0.1226,0.1209,0.1189,0.1174,0.1173,0.1157,0.1145,0.1127,0.1112,0.1096,0.1074,0.1055,0.1042,0.1023,0.1012,0.101,0.1007,0.1007,0.1005,0.1026,0.1031,0.1009,0.1009,0.1009,0.1009,0.1009,0.1009,0.1221,0.1199,0.1192,0.1164,0.1154,0.1133,0.1124,0.1111,0.1099,0.1074,0.1058,0.105,0.1036,0.1016,0.0998,0.0995,0.0988,0.0985,0.0981,0.1001,0.1003,0.1005,0.101,0.0983,0.0983,0.096,0.096,0.096]},{"header":{"parameterUnit":"m.s-1","parameterCategory":1,"la1":30.2991,"la2":30.254,"lo1":-89.0895,"lo2":-89.0444,"dy":0.0017,"dx":0.0017,"nx":28,"ny":28,"refTime":"2023-11-03T21:00:00:Z","depth":0,"parameterNumber":3,"parameterNumberName":"V-component_of_WINDS"},"data":[0,0,0,0,0,0,0,0,0,0,0,0,0,0,0,0,0,0,0,0,0,0,0,0,0,0,0,0,0,0,0,0,0,0,0,0,0,0,0,0,0,0,0,0,0,0,0,0,0,0,0,0,0,0,0,0,0,0,-1.6874,-1.6875,0,-1.696,-1.6961,-1.6962,-1.6998,-1.6998,-1.6998,-1.6998,-1.7086,-1.7089,-1.7091,0,0,0,0,0,0,0,0,0,0,0,0,0,-1.6741,-1.6743,-1.6874,-1.6875,-1.6876,-1.696,-1.6961,-1.6962,-1.6998,-1.6998,-1.6998,-1.6998,-1.7085,-1.7088,-1.7091,0,0,0,0,0,0,0,0,0,0,0,0,0,-1.681,-1.6744,-1.6873,-1.6904,-1.6908,-1.6959,-1.6961,-1.6962,-1.6998,-1.6998,-1.6998,-1.6998,-1.7084,-1.7088,-1.7092,-1.712,0,0,-1.7103,-1.7105,0,0,0,0,0,0,0,0,-1.6806,-1.6815,-1.6898,-1.6902,-1.6906,-1.6968,-1.6946,-1.7015,-1.6998,-1.6964,-1.6998,-1.6997,-1.7047,-1.7054,-1.7071,-1.7124,-1.7128,-1.7103,-1.7106,-1.7107,-1.7108,0,0,0,0,0,0,0,-1.6801,-1.6811,-1.6908,-1.69,-1.6904,-1.6913,-1.6923,-1.696,-1.7006,-1.6967,-1.697,-1.6979,-1.7049,-1.7067,-1.7073,-1.7129,-1.7103,-1.7107,-1.7109,-1.711,-1.721,-1.721,0,0,0,0,0,0,-1.6791,-1.6807,-1.6905,-1.691,-1.6854,-1.6916,-1.6927,-1.6948,-1.7005,-1.7014,-1.6979,-1.6981,-1.7061,-1.7068,-1.7076,-1.7113,-1.7107,-1.7111,-1.7113,-1.7209,-1.721,-1.721,0,0,0,0,0,0,-1.6788,-1.68,-1.6901,-1.6859,-1.6873,-1.6919,-1.6943,-1.695,-1.6968,-1.7015,-1.7023,-1.6989,-1.7061,-1.7071,-1.7109,-1.7116,-1.7113,-1.7116,-1.7209,-1.7209,-1.721,-1.7186,0,0,0,0,0,0,-1.6784,-1.6798,-1.6809,-1.6859,-1.6875,-1.6932,-1.6943,-1.6952,-1.6974,-1.6977,-1.7026,-1.7034,-1.7061,-1.7103,-1.7112,-1.7121,-1.7119,-1.7208,-1.7209,-1.721,-1.7186,-1.7186,-1.7185,0,0,0,0,0,-1.6779,-1.6799,-1.681,-1.6821,-1.689,-1.6933,-1.6942,-1.6972,-1.6975,-1.6986,-1.7017,-1.7033,-1.7114,-1.7106,-1.7117,-1.7128,-1.7208,-1.7209,-1.721,-1.7187,-1.7186,-1.7185,0,0,0,0,0,0,-1.6749,-1.6806,-1.6819,-1.6855,-1.6889,-1.6939,-1.6954,-1.6971,-1.7004,-1.7005,-1.7042,-1.7053,-1.7087,-1.7111,-1.7102,-1.7158,-1.7162,-1.7165,-1.7141,-1.7141,-1.714,-1.7133,-1.7122,0,0,0,0,0,-1.6746,-1.6776,-1.6825,-1.6852,-1.6869,-1.6908,-1.6928,-1.6949,-1.6985,-1.7,-1.7033,-1.7067,-1.7101,-1.7122,-1.7155,-1.719,-1.7201,-1.7202,-1.7202,-1.7201,-1.7203,-1.7224,-1.7225,-1.7213,-1.7213,-1.7213,0,0,-1.6741,-1.6777,-1.6793,-1.6847,-1.6876,-1.6906,-1.692,-1.6952,-1.6974,-1.7005,-1.7042,-1.7068,-1.7109,-1.7145,-1.7163,-1.7166,-1.7209,-1.7202,-1.7201,-1.7204,-1.7225,-1.7226,-1.7227,-1.7213,-1.7213,-1.7213,0,0,-1.6748,-1.6778,-1.6804,-1.6832,-1.6875,-1.6901,-1.6908,-1.6955,-1.6973,-1.7012,-1.7035,-1.7063,-1.7119,-1.7148,-1.717,-1.7187,-1.7203,-1.7197,-1.7194,-1.7213,-1.7214,-1.7215,-1.7221,-1.7223,-1.7199,-1.7199,-1.7199,0,-1.6737,-1.6783,-1.6815,-1.6846,-1.6869,-1.6897,-1.6924,-1.695,-1.7002,-1.7017,-1.702,-1.7092,-1.7122,-1.7165,-1.7169,-1.7186,-1.7194,-1.7191,-1.7211,-1.7213,-1.7214,-1.722,-1.7223,-1.7198,-1.7198,-1.7198,-1.7198,0,-1.6767,-1.6799,-1.6815,-1.6864,-1.6889,-1.6917,-1.6954,-1.6975,-1.6994,-1.702,-1.7058,-1.7095,-1.7136,-1.7148,-1.7167,-1.7194,-1.7195,-1.7204,-1.7209,-1.7214,-1.722,-1.7223,-1.7196,-1.7197,-1.7197,-1.7197,0,0,-1.6757,-1.6823,-1.6829,-1.6851,-1.6901,-1.6926,-1.6956,-1.6996,-1.7014,-1.7048,-1.7074,-1.7121,-1.713,-1.7155,-1.7177,-1.7194,-1.7205,-1.7201,-1.7203,-1.7201,-1.7238,-1.7231,-1.7233,-1.7216,-1.7217,-1.7217,-1.7235,0,-1.677,-1.6825,-1.6854,-1.6896,-1.6926,-1.6954,-1.698,-1.7013,-1.7038,-1.7067,-1.7095,-1.7128,-1.7137,-1.7152,-1.717,-1.72,-1.7213,-1.7199,-1.7241,-1.7242,-1.7229,-1.7237,-1.7229,-1.7243,-1.7237,-1.7238,-1.7238,0,-1.6793,-1.6827,-1.6872,-1.6918,-1.6932,-1.6954,-1.6994,-1.7021,-1.7059,-1.7076,-1.7104,-1.7126,-1.7158,-1.7161,-1.7206,-1.7196,-1.7215,-1.7232,-1.7233,-1.7238,-1.724,-1.7242,-1.7249,-1.7251,-1.7243,-1.7242,-1.7242,0,-1.6781,-1.6838,-1.6872,-1.6891,-1.6946,-1.6961,-1.6984,-1.7022,-1.7045,-1.7079,-1.7094,-1.7132,-1.7152,-1.7181,-1.7212,-1.7211,-1.7255,-1.726,-1.727,-1.7269,-1.7278,-1.7277,-1.7288,-1.729,-1.729,-1.729,-1.7289,0,-1.6793,-1.6819,-1.6868,-1.6889,-1.6919,-1.6953,-1.6982,-1.7008,-1.7041,-1.7068,-1.7094,-1.7119,-1.7159,-1.7188,-1.7213,-1.7246,-1.7256,-1.727,-1.7277,-1.7268,-1.7266,-1.7281,-1.7281,-1.729,-1.729,-1.729,-1.729,0,-1.6785,-1.6818,-1.6857,-1.6906,-1.6919,-1.6939,-1.698,-1.7002,-1.7028,-1.7062,-1.7071,-1.7113,-1.7149,-1.7183,-1.7231,-1.7248,-1.7281,-1.729,-1.7268,-1.7272,-1.728,-1.7279,-1.7301,-1.7306,-1.7304,-1.7304,-1.7304,0,-1.679,-1.6811,-1.6862,-1.6881,-1.6904,-1.6935,-1.6958,-1.6993,-1.7015,-1.7061,-1.7077,-1.7114,-1.7147,-1.7203,-1.7237,-1.7274,-1.7283,-1.7289,-1.7289,-1.728,-1.7284,-1.7282,-1.7284,-1.7288,-1.7288,-1.7288,-1.7287,0,-1.6796,-1.6812,-1.6844,-1.6881,-1.6908,-1.6939,-1.6972,-1.6986,-1.7027,-1.7051,-1.7088,-1.7113,-1.7162,-1.7199,-1.724,-1.7265,-1.7283,-1.7287,-1.7291,-1.7283,-1.727,-1.7277,-1.7266,-1.7286,-1.7287,-1.7287,-1.7287,-1.7287,-1.6795,-1.6815,-1.6853,-1.6888,-1.6916,-1.6946,-1.6968,-1.6997,-1.7029,-1.7071,-1.709,-1.7127,-1.7165,-1.7222,-1.7246,-1.7276,-1.728,-1.7286,-1.7288,-1.7289,-1.7287,-1.7265,-1.7283,-1.7283,-1.7284,-1.7284,-1.7284,0,-1.6802,-1.6828,-1.686,-1.6904,-1.6932,-1.6946,-1.6983,-1.7005,-1.7037,-1.7071,-1.7102,-1.7144,-1.7181,-1.7218,-1.7257,-1.7273,-1.7283,-1.7282,-1.7281,-1.7287,-1.7281,-1.7273,-1.7274,-1.7274,-1.7274,-1.7274,-1.7274,-1.7274,-1.6809,-1.6843,-1.6863,-1.6912,-1.6938,-1.6975,-1.6994,-1.7022,-1.7049,-1.7095,-1.7125,-1.7149,-1.7185,-1.7226,-1.726,-1.727,-1.7283,-1.728,-1.7293,-1.7287,-1.7287,-1.7288,-1.7281,-1.7283,-1.7283,-1.7296,-1.7296,-1.7296]}]]